Other Public Products
Issued by NWS Grand Forks, ND

Home | Current Version | Previous Version | Text Only | Print | Product List | Glossary On
Versions: 1 2 3 4 5 6 7 8 9 10 11 12 13 14 15 16 17 18 19 20 21 22 23 24 25 26 27 28 29 30 31 32 33 34 35 36 37 38 39 40 41 42 43 44 45 46 47 48 49 50
000
FPUS83 KFGF 021431
OPUFGF
PRAIRIE TO PINES WEATHER ROUNDUP
NATIONAL WEATHER SERVICE EASTERN NORTH DAKOTA/GRAND FORKS ND
900 AM CDT SUN AUG 02 2015

 **SATELLITE DATA USED TO AUGMENT SKY COVER AT AUTOMATED STATIONS**
 *****  WEATHER ACROSS EASTERN NORTH DAKOTA  *****

CITY           SKY/WX    TMP DP  RH WIND       PRES   REMARKS
GRAND FORKS    MOSUNNY   67  59  75 NW13      29.77R
GRAND FORKS AF MOSUNNY   66  58  75 N13       29.78R
GRAND CITY NWS NOT AVBL
BUXTON         NOT AVBL
DEVILS LAKE    SUNNY     66  54  63 N14       29.84R
FARGO          MOSUNNY   68  60  75 N14       29.76R
WAHPETON ARPT  SUNNY     72  59  64 N14G21    29.76R
$$

 *****  WEATHER ACROSS CENTRAL AND WESTERN NORTH DAKOTA  *****

CITY           SKY/WX    TMP DP  RH WIND       PRES   REMARKS
JAMESTOWN      SUNNY     66  59  78 N14       29.83R
BISMARCK       SUNNY     68  57  68 NW10      29.91R
MINOT          SUNNY     65  55  70 NW14G21   29.91R
MINOT AFB      SUNNY     67  57  72 NW14      29.91R
GARRISON         N/A     65  56  72 N8        29.92R
WILLISTON      SUNNY     67  54  63 N10       29.99R
DICKINSON      SUNNY     62  55  77 NW7       29.98R
HETTINGER      SUNNY     64  55  72 N8        30.00R
$$

 *****  OTHER OBSERVATIONS NORTHEAST NORTH DAKOTA  *****

CITY           SKY/WX    TMP DP  RH WIND       PRES   REMARKS
WALHALLA       FAIR      66  64  94 MISG      29.82R
LANGDON        FAIR      64  59  82 N13       29.85R
CAVALIER       FAIR      66  59  77 NW10      29.80R
GRAFTON        FAIR      68  61  77 N13       29.80R
CANDO          FAIR      66  57  72 N13       29.87R
FORT TOTTEN      N/A     66  58  75 N6        29.95
ROLLA          FAIR      63  55  77 NW15      29.90R
RUGBY          NOT AVBL
 ***** THE ABOVE OBSERVATIONS ARE NON NWS ARE NOT QUALITY
        CONTROLLED AND MAY MIS-REPORT RAIN FOR SNOW...
$$

 *****  OTHER OBSERVATIONS SOUTHEAST NORTH DAKOTA *****

CITY           SKY/WX    TMP DP  RH WIND       PRES   REMARKS
COOPERSTOWN    NOT AVBL
VALLEY CITY    FAIR      68  59  73 N15       29.82R
OAKES            N/A     68  63  83 NW17G24   29.82R
GWINNER        FAIR      72  61  68 N15       29.81R
BUFFALO        NOT AVBL
WYNDMERE         N/A     72  63  73 N13         N/A
 ***** THE ABOVE OBSERVATIONS ARE NON NWS ARE NOT QUALITY
       CONTROLLED AND MAY MIS-REPORT RAIN FOR SNOW...
$$

  *****  WEATHER ACROSS NORTHERN MINNESOTA  *****

CITY           SKY/WX    TMP DP  RH WIND       PRES   REMARKS
FLAG ISLAND    SUNNY     66  55  68 NW15      29.70R
WARROAD        MOSUNNY   64  61  88 NW13      29.73R
ROSEAU         SUNNY     64  59  82 NW10      29.74R
HALLOCK        SUNNY     66  61  82 N15       29.78R
THF RVR FALLS  MOSUNNY   68  61  77 NW14      29.75R
HALSTAD        NOT AVBL
FOSSTON        MOSUNNY   66  59  77 N10       29.75R
BAUDETTE       CLOUDY    68  61  78 NW16      29.69S
WASKISH        MOSUNNY   68  61  77 NW6       29.70R
CROOKSTON      SUNNY     68  61  77 N14       29.77R
$$
  *****  WEATHER ACROSS CENTRAL AND WEST MINNESOTA  *****

CITY           SKY/WX    TMP DP  RH WIND       PRES   REMARKS
BEMIDJI        CLOUDY    67  62  86 NW12      29.72R
PARK RAPIDS    PTSUNNY   70  60  70 NW9       29.70R
WADENA         CLOUDY    66  63  88 NW6       29.71R
DETROIT LAKES  MOSUNNY   66  61  82 N10       29.76R
MOORHEAD       MOSUNNY   66  63  88 N13       29.77R
FERGUS FALLS   MOSUNNY   72  61  68 N9        29.72R
ELBOW LAKE     FAIR      73  61  66 N15G22    29.70R
MORRIS MN      PTSUNNY   72  66  83 NW18      29.69R
STAPLES        PTSUNNY   68  63  83 NW10G22   29.70R
WHEATON        MOSUNNY   72  64  78 N13G22    29.75R
$$
  *****  WEATHER ELSEWHERE ACROSS MINNESOTA  *****

CITY           SKY/WX    TMP DP  RH WIND       PRES   REMARKS
DULUTH         TSTM      67  56  67 W5        29.64F
INTRNTL FALLS  MOSUNNY   67  56  67 N12       29.66R
ELY            CLOUDY    63  59  88 N5        29.63S
CLOQUET        PTSUNNY   68  55  64 CALM      29.62F
BRAINERD       PTSUNNY   67  61  81 CALM      29.63F
HIBBING        CLOUDY    64  59  83 NW5       29.64R
ALEXANDRIA     MOSUNNY   70  65  84 N12       29.69R
SAINT CLOUD    SUNNY     72  66  81 VRB3      29.65R
MINNEAPOLIS    MOSUNNY   75  64  68 S10       29.63F
$$

  *****  WEATHER ACROSS SOUTH DAKOTA  *****

CITY           SKY/WX    TMP DP  RH WIND       PRES   REMARKS
SIOUX FALLS    MOSUNNY   73  64  73 VRB5      29.77S
BROOKINGS      SUNNY     75  63  64 NW14      29.77S
WATERTOWN      SUNNY     71  59  65 NW16      29.77R
HURON          SUNNY     72  61  68 NW14      29.77R
SISSETON         N/A     72  64  76 N14       29.74R
ABERDEEN       SUNNY     72  60  66 N16       29.80R
MITCHELL       SUNNY     72  64  76 SW6       29.77S
PIERRE         SUNNY     69  57  65 N8        29.84R
MOBRIDGE       SUNNY     71  58  63 N14       29.87R
RAPID CITY     SUNNY     69  49  48 N13       29.98R
$$

  *****  SOME WEATHER IN NEARBY STATES *****

CITY           SKY/WX    TMP DP  RH WIND       PRES   REMARKS
GLASGOW MT     SUNNY     64  52  64 CALM      30.04R
GREAT FALLS MT MOSUNNY   60  51  72 W10       30.09R
CHEYENNE WY    SUNNY     69  51  52 W7        30.15R
SCOTTSBLUFF NE SUNNY     69  58  67 CALM      30.02R
OMAHA NE       MOSUNNY   78  71  79 S8        29.85S
DES MOINES IA  CLOUDY    76  66  71 SW13      29.81F
DAVENPORT IA   SUNNY     77  64  64 SW12      29.85F
CHICAGO IL     MOSUNNY   80  65  59 SW16G25   29.84S
EAU CLAIRE WI    N/A     75  65  70 MISG      29.66F
LA CROSSE WI   SUNNY     80  68  66 VRB5G17   29.72R
$$

  *****  SOME NATIONAL WEATHER *****

CITY           SKY/WX    TMP DP  RH WIND       PRES   REMARKS
LA GUARDIA NY  MOSUNNY   81  57  43 NE6       29.92R
RALEIGH NC     PTSUNNY   79  60  52 N6        29.99R
ATLANTA GA     PTSUNNY   80  62  54 E8        29.98R
NEW ORLEANS LA MOSUNNY   86  68  54 NE8       29.90S
OKLAHOMA CITY  CLOUDY    77  69  76 S7        29.98S
ALBUQUERQUE NM PTSUNNY   68  58  70 N5        30.19R
SALT LAKE CITY PTSUNNY   72  44  36 SE7       30.00S
LOS ANGELES CA CLOUDY    69  64  84 SW3       29.91R
BOISE ID       SUNNY     72  38  29 CALM      29.91R
SEATTLE WA     MOSUNNY   64  53  67 W5        29.95R
$$

*** WEATHER ACROSS MANITOBA...SASKATCHEWAN AND ONTARIO ***
                ***ONTARIO***

CITY           SKY/WX    TMP DP  RH WIND       PRES   REMARKS
GERALDTON      PTSUNNY   63  57  82 W9        29.55F
THUNDER BAY    PTSUNNY   66  63  88 W9        29.58F
SIOUX LOOKOUT  MOSUNNY   63  57  82 NW9       29.62S
TORONTO        MOSUNNY   77  57  50 W13       29.84S
BIG TROUT LK   LGT RAIN  50  48  93 NW10G18   29.46R
PICKLE LAKE    PTSUNNY   57  48  72 W14G22    29.55S
DRYDEN         SUNNY     61  55  82 W9        29.64S
KENORA         MOSUNNY   63  55  77 NW10G17   29.69R
$$
                *** MANITOBA***

CITY           SKY/WX    TMP DP  RH WIND       PRES   REMARKS
BRANDON        MOSUNNY   64  55  72 NW8       29.87R
DAUPHIN        SUNNY     63  54  72 NW10      29.84R
ISLAND LAKE    CLOUDY    54  48  82 NW14G21   29.59R
PILOT MOUND      N/A     61  57  88 NW9         N/A
THE PAS        MOSUNNY   61  45  55 NW17G24   29.81S
THOMPSON       LGT RAIN  52  48  87 NW9G18    29.66S
WINNIPEG       MOSUNNY   66  57  72 NW10      29.77R
LYNN LAKE      LGT RAIN  52  48  87 NW13G24   29.78R
CHURCHILL      LGT RAIN  46  45  93 N23       29.57R FOG
$$
                ***SASKATCHEWAN***

CITY           SKY/WX    TMP DP  RH WIND       PRES   REMARKS
ESTEVAN        MOSUNNY   63  57  82 NW9       29.97S
KINDERSLEY     PTSUNNY   59  55  88 CALM      30.06R
LLOYDMINSTER   MOSUNNY   59  54  82 W3        30.06R
PRINCE ALBERT  MOSUNNY   59  55  88 NW8       29.98S
REGINA         MOSUNNY   61  55  82 N13       30.00S
YORKTON        SUNNY     61  54  77 NW13      29.93R
N. BATTLEFORD  SUNNY     55  54  94 W5        30.07R


USA.gov is the U.S. government's official web portal to all federal, state and local government web resources and services.